Precipitable_Water
1.45 1.45 1.39 1.33 1.30 1.29 1.23 1.20 1.18 1.15 1.14 1.11 1.08 1.06 1.08 1.07 1.04 1.05 1.05 1.01 0.96 0.91 0.86 0.82 0.80 0.79 0.79 0.78 0.77 0.75 0.74 0.78
1.33 1.36 1.35 1.35 1.32 1.23 1.17 1.14 1.14 1.15 1.15 1.19 1.22 1.24 1.25 1.24 1.24 1.22 1.19 1.18 1.16 1.14 1.12 1.07 0.96 0.92 0.94 0.95 0.94 0.95 1.02 0.97
1.30 1.25 1.26 1.31 1.28 1.18 1.15 1.14 1.13 1.12 1.14 1.14 1.23 1.25 1.27 1.30 1.26 1.27 1.27 1.26 1.27 1.25 1.22 1.20 1.17 1.14 1.16 1.18 1.18 1.27 1.23 1.19
1.15 1.19 1.19 1.15 1.13 1.14 1.14 1.16 1.16 1.16 1.21 1.25 1.27 1.30 1.35 1.40 1.42 1.41 1.40 1.39 1.37 1.37 1.40 1.39 1.41 1.42 1.45 1.43 1.40 1.38 1.38 1.39
1.11 1.13 1.12 1.11 1.10 1.13 1.14 1.23 1.27 1.32 1.37 1.41 1.45 1.47 1.52 1.51 1.52 1.48 1.46 1.47 1.48 1.45 1.48 1.46 1.50 1.53 1.53 1.54 1.55 1.57 1.54 1.41
1.14 1.14 1.16 1.19 1.24 1.28 1.33 1.34 1.40 1.40 1.48 1.55 1.56 1.51 1.48 1.45 1.40 1.37 1.34 1.32 1.27 1.31 1.31 1.33 1.34 1.36 1.36 1.40 1.46 1.46 1.44 1.41
1.17 1.20 1.22 1.32 1.31 1.33 1.36 1.36 1.39 1.44 1.46 1.46 1.44 1.39 1.35 1.33 1.32 1.28 1.24 1.22 1.20 1.21 1.18 1.18 1.17 1.19 1.25 1.18 1.22 1.23 1.16 1.14
1.25 1.29 1.36 1.39 1.38 1.39 1.40 1.45 1.39 1.37 1.34 1.28 1.20 1.10 1.04 1.01 0.99 0.98 0.97 1.00 1.02 1.04 1.00 0.97 1.02 1.12 0.99 0.98 1.03 1.03 1.02 1.00
1.32 1.27 1.35 1.37 1.37 1.38 1.43 1.36 1.23 1.04 0.93 0.91 0.88 0.87 0.85 0.85 0.83 0.80 0.80 0.80 0.77 0.73 0.69 0.72 0.82 0.89 0.76 0.76 0.81 0.76 0.72 0.74
1.32 1.27 1.33 1.31 1.31 1.28 1.12 0.92 0.85 0.81 0.78 0.77 0.76 0.76 0.76 0.72 0.68 0.66 0.65 0.60 0.57 0.52 0.53 0.62 0.74 0.71 0.66 0.63 0.63 0.61 0.58 0.55
1.31 1.21 1.23 1.15 1.09 1.04 0.91 0.81 0.73 0.70 0.72 0.72 0.71 0.68 0.67 0.63 0.61 0.61 0.60 0.54 0.49 0.44 0.48 0.63 0.65 0.62 0.60 0.60 0.57 0.52 0.43 0.35
1.29 1.32 1.30 1.20 1.05 0.92 0.82 0.72 0.67 0.68 0.69 0.69 0.67 0.62 0.60 0.55 0.54 0.49 0.43 0.37 0.34 0.33 0.41 0.52 0.57 0.56 0.54 0.55 0.55 0.47 0.34 0.23
1.25 1.29 1.26 1.15 1.08 0.81 0.71 0.62 0.64 0.66 0.67 0.63 0.59 0.53 0.51 0.47 0.41 0.39 0.35 0.32 0.31 0.31 0.31 0.40 0.42 0.51 0.54 0.53 0.49 0.44 0.33 0.25
1.23 1.22 1.16 1.01 0.90 0.87 0.84 0.79 0.75 0.67 0.63 0.56 0.50 0.44 0.40 0.39 0.40 0.36 0.34 0.30 0.29 0.28 0.29 0.25 0.25 0.32 0.29 0.35 0.28 0.38 0.25 0.27
1.14 1.13 1.07 1.00 0.98 0.95 0.86 0.76 0.68 0.59 0.54 0.49 0.45 0.39 0.39 0.39 0.37 0.34 0.31 0.28 0.25 0.27 0.27 0.26 0.22 0.24 0.25 0.25 0.21 0.14 0.21 0.24
0.95 0.89 0.92 0.99 0.96 0.84 0.77 0.63 0.56 0.54 0.52 0.49 0.47 0.46 0.41 0.36 0.34 0.32 0.29 0.28 0.25 0.25 0.27 0.26 0.24 0.22 0.24 0.26 0.26 0.25 0.19 0.18
0.90 0.89 0.87 0.85 0.83 0.76 0.70 0.60 0.59 0.54 0.50 0.47 0.42 0.38 0.34 0.33 0.31 0.28 0.27 0.26 0.26 0.27 0.26 0.26 0.26 0.25 0.25 0.26 0.27 0.28 0.26 0.23
0.86 0.85 0.81 0.80 0.76 0.69 0.64 0.58 0.50 0.47 0.46 0.43 0.41 0.39 0.35 0.31 0.29 0.27 0.26 0.25 0.25 0.25 0.26 0.27 0.27 0.28 0.28 0.28 0.25 0.22 0.21 0.21
0.77 0.78 0.73 0.72 0.69 0.64 0.57 0.49 0.43 0.44 0.38 0.34 0.32 0.33 0.30 0.30 0.28 0.25 0.24 0.25 0.25 0.26 0.26 0.26 0.27 0.26 0.27 0.27 0.27 0.24 0.25 0.24
0.70 0.71 0.68 0.69 0.65 0.58 0.51 0.44 0.39 0.37 0.36 0.35 0.32 0.31 0.31 0.30 0.28 0.26 0.24 0.24 0.25 0.26 0.26 0.25 0.28 0.27 0.27 0.27 0.26 0.25 0.26 0.27
Wind_Speed
12 12 11 10 9 8 7 7 6 6 5 4 4 4 4 3 3 3 2 2 2 2 3 4 6 7 8 9 11 12 12 13
13 13 12 11 10 9 8 7 6 5 4 3 3 2 1 1 1 1 2 2 3 4 5 6 7 8 9 10 11 12 12 13
15 14 13 12 10 9 8 7 6 5 4 3 2 1 1 1 2 3 3 4 5 6 7 8 9 10 11 12 13 13 14 14
15 15 14 13 11 10 9 7 6 5 4 4 3 3 2 3 4 4 5 7 8 9 9 10 11 12 13 14 14 16 16 14
17 15 15 13 12 11 10 8 7 6 5 5 5 5 5 5 6 7 8 9 10 11 12 13 14 15 16 17 17 17 16 18
16 16 15 14 13 11 10 9 9 8 7 7 6 7 7 8 9 10 11 12 14 15 16 17 18 18 19 19 19 19 19 19
17 16 15 15 13 12 11 11 10 9 9 8 9 9 10 11 12 13 14 15 16 17 17 18 18 19 18 19 19 19 19 20
17 17 17 15 14 13 12 12 11 11 10 11 11 11 12 12 13 14 15 16 17 17 17 18 18 18 19 18 19 19 19 20
18 18 18 16 15 15 14 13 12 12 11 11 11 12 12 13 14 14 15 16 16 17 17 17 17 17 17 17 17 17 18 19
19 20 19 17 16 15 14 13 13 12 12 11 11 11 12 13 13 13 14 14 15 15 16 15 15 16 16 15 15 16 16 17
19 23 21 20 17 16 15 14 13 13 12 12 11 12 12 12 12 13 14 14 15 15 15 14 14 13 13 13 13 14 15 16
19 23 23 20 21 17 16 14 14 13 13 12 12 12 11 11 12 12 13 13 13 13 12 12 12 12 12 13 14 14 15 16
14 14 18 21 21 18 16 15 15 14 13 12 12 12 11 11 11 11 11 12 12 12 11 11 12 13 14 14 14 15 16 17
15 15 15 14 15 17 18 17 16 14 14 12 12 11 11 10 10 10 11 10 10 11 11 11 11 13 14 14 15 15 17 18
18 17 16 16 16 16 15 15 14 14 14 13 11 10 10 10 9 9 9 9 10 10 11 11 11 12 12 13 14 16 18 18
18 17 17 16 17 17 17 16 16 15 15 14 13 12 11 9 9 9 9 9 9 10 10 10 11 12 12 13 13 15 17 17
20 19 17 16 15 15 15 15 16 16 14 13 12 10 9 8 9 9 8 8 8 9 9 10 11 11 13 14 14 15 17 17
22 21 19 19 17 16 16 15 14 14 14 13 12 11 9 8 8 7 7 7 7 8 9 10 10 11 12 13 14 15 17 18
23 23 21 20 19 17 16 15 14 14 13 12 11 10 9 8 7 6 6 6 7 8 8 9 10 11 12 13 15 16 18 20
23 24 22 21 20 18 17 16 15 14 13 12 11 10 9 7 6 6 6 6 6 7 8 9 10 11 13 14 15 17 19 20
Wind_Direction
185 183 181 177 174 170 163 158 152 145 136 128 120 111 104 93 82 74 63 45 16 345 324 311 303 299 298 297 297 297 295 295
190 186 183 182 179 175 171 167 165 162 156 151 144 129 124 75 13 351 341 333 324 319 314 310 306 303 302 302 302 300 299 299
196 194 188 188 185 186 185 184 184 186 186 189 197 211 243 295 315 316 314 314 312 309 307 305 305 302 301 301 300 298 299 298
199 196 194 195 195 195 195 196 200 205 210 216 224 242 264 282 299 302 307 306 305 305 304 303 303 302 301 301 298 297 295 296
199 198 198 200 202 202 205 209 212 218 226 234 244 257 270 281 290 296 300 302 303 303 302 301 302 302 300 300 298 297 295 297
200 200 202 204 207 209 212 217 224 230 237 246 254 263 273 281 288 293 296 298 298 299 297 298 299 298 298 297 296 294 293 294
205 204 205 208 212 216 221 226 230 235 241 250 260 269 275 281 286 291 294 296 296 297 296 296 297 298 299 298 298 296 294 293
208 211 211 212 218 221 227 231 236 240 246 257 266 272 277 282 287 290 294 295 296 296 297 296 296 296 298 298 298 297 297 296
216 216 217 220 223 227 231 236 239 243 250 261 268 273 279 284 288 292 296 298 298 298 298 297 296 298 299 300 299 300 300 301
222 217 218 221 225 228 231 234 238 244 251 260 268 276 282 286 290 294 298 302 302 302 300 299 298 299 299 301 302 303 304 306
229 220 224 226 225 227 231 235 240 245 251 259 268 278 283 287 291 295 298 301 305 304 301 299 300 301 302 303 306 308 310 312
229 229 227 228 225 230 233 235 241 246 251 258 268 276 281 286 293 297 299 302 307 310 307 303 304 303 303 304 306 309 311 314
225 223 219 228 229 231 232 236 243 245 251 262 267 273 278 284 290 296 303 306 309 311 313 309 306 303 301 302 305 310 311 312
224 220 217 218 217 227 234 244 248 250 252 262 266 271 273 281 287 295 302 305 313 316 315 315 319 314 307 303 303 305 311 312
224 224 226 227 226 234 233 240 244 247 251 257 262 267 271 278 285 294 302 306 312 317 319 319 318 324 329 315 310 313 314 313
224 225 226 230 233 239 241 247 246 250 253 255 256 263 267 271 282 293 300 306 311 317 322 324 325 325 323 328 328 326 321 317
227 227 230 233 239 243 246 247 248 251 250 249 248 249 255 269 279 289 298 304 313 318 322 326 328 329 330 327 327 327 331 324
227 229 232 237 241 248 249 248 248 245 243 243 243 249 256 268 279 288 296 303 311 318 325 330 331 332 331 332 333 330 331 329
229 231 233 237 241 247 247 246 247 240 238 238 235 244 253 262 273 282 292 303 313 320 326 331 335 336 336 333 333 333 332 331
229 231 233 236 238 241 242 243 241 236 233 231 235 240 245 250 261 278 293 305 314 320 327 332 335 335 336 335 333 333 334 333